Flag for U.S.A. Weather past 2 weeks in Charleston, South Carolina, U.S.A.

Now
88 °F

Passing clouds.


Feels Like: 89 °F
Forecast: 70 / 88 °F
Wind: 7 mph from North

Location: Charleston Air Force Base Reporting Station

Current Time: Aug 27, 2014 at 4:05:24 PM

Latest Report: Aug 27, 2014 at 2:56 PM


Visibility: 10 mi

Pressure: 29.99 "Hg

Humidity: 43%

Dew point: 63 °F

Location of CharlestonLocation

Historic Weather in Charleston — Graph

°F

Charleston temperature yesterday

Maximum temperature yesterday: 89 °F (at 2:56 PM)
Minimum temperature yesterday: 70 °F (at 6:56 AM)
Average temperature yesterday: 79 °F

Past Weeks' High & Low Weather Summary

 TemperatureHumidityPressure
High99 °F (Aug 22, 3:56 PM)91% (Aug 15, 3:56 AM)30.08 "Hg (Aug 15, 3:56 AM)
Low65 °F (Aug 27, 6:56 AM)37% (Aug 17, 4:56 PM)29.83 "Hg (Aug 23, 4:56 PM)
Average83 °F68%29.96 "Hg
* Reported Aug 12 2:56 PM — Aug 27 2:56 PM, Charleston, Weather by CustomWeather, © 2014

Note: Actual official high and low records may vary slightly from our data, if they occured in-between our weather recording intervals... More about our weather records

Advertising

Charleston weather history for previous 24 hours

 ConditionsComfort  
Time TempWeatherWind HumidityBarometerVisibility
2:56 PM
Aug 27
88 °FPassing clouds.7 mph43%29.99 "Hg10 mi
1:56 PM87 °FPassing clouds.10 mph46%30.01 "Hg10 mi
12:56 PM86 °FPassing clouds.7 mph48%30.02 "Hg10 mi
11:56 AM84 °FPassing clouds.9 mph49%30.03 "Hg10 mi
10:56 AM82 °FPassing clouds.9 mph51%30.03 "Hg10 mi
9:56 AM79 °FPassing clouds.10 mph58%30.03 "Hg10 mi
8:56 AM75 °FPassing clouds.9 mph66%30.03 "Hg10 mi
7:56 AM70 °FPassing clouds.6 mph81%30.02 "Hg10 mi
6:56 AM65 °FClear.6 mph87%30.01 "Hg10 mi
5:56 AM66 °FClear.5 mph87%30.00 "Hg10 mi
4:56 AM68 °FClear.5 mph84%29.99 "Hg10 mi
3:56 AM70 °FClear.6 mph79%29.99 "Hg10 mi
2:56 AM72 °FClear.7 mph76%30.00 "Hg10 mi
1:56 AM72 °FClear.6 mph78%30.01 "Hg10 mi
12:56 AM73 °FClear.6 mph76%30.03 "Hg10 mi
11:56 PM
Aug 26
74 °FClear.6 mph71%30.03 "Hg10 mi
10:56 PM75 °FClear.6 mph69%30.03 "Hg10 mi
9:56 PM77 °FClear.7 mph64%30.03 "Hg10 mi
8:56 PM78 °FClear.8 mph60%30.01 "Hg10 mi
7:56 PM81 °FScattered clouds.7 mph54%30.01 "Hg10 mi
6:56 PM85 °FScattered clouds.10 mph45%30.01 "Hg10 mi
5:56 PM87 °FScattered clouds.12 mph42%30.00 "Hg10 mi
4:56 PM86 °FScattered clouds.8 mph46%30.01 "Hg10 mi
Weather by CustomWeather, © 2014

See weather overviewHow to use our weather pages